[[{"header":{"parameterUnit":"m.s-1","parameterCategory":1,"la1":30.2991,"la2":30.254,"lo1":-89.0895,"lo2":-89.0444,"dy":0.0017,"dx":0.0017,"nx":28,"ny":28,"refTime":"2023-08-29T09:00:00:Z","depth":0,"parameterNumber":2,"parameterNumberName":"U-component_of_WINDS"},"data":[0,0,0,0,0,0,0,0,0,0,0,0,0,0,0,0,0,0,0,0,0,0,0,0,0,0,0,0,0,0,0,0,0,0,0,0,0,0,0,0,0,0,0,0,0,0,0,0,0,0,0,0,0,0,0,0,0,0,-3.1639,-3.164,0,-3.1752,-3.1754,-3.1755,-3.1711,-3.1708,-3.1705,-3.1703,-3.1818,-3.1824,-3.1829,0,0,0,0,0,0,0,0,0,0,0,0,0,-3.1381,-3.1386,-3.1638,-3.164,-3.1641,-3.1752,-3.1754,-3.1755,-3.1711,-3.1708,-3.1705,-3.1702,-3.1816,-3.1823,-3.1829,0,0,0,0,0,0,0,0,0,0,0,0,0,-3.1493,-3.1387,-3.1638,-3.1633,-3.1633,-3.1752,-3.1754,-3.1756,-3.1712,-3.1708,-3.1704,-3.17,-3.1814,-3.1822,-3.183,-3.1961,0,0,-3.1856,-3.1859,0,0,0,0,0,0,0,0,-3.1487,-3.1503,-3.1632,-3.1633,-3.1634,-3.1713,-3.1705,-3.1824,-3.1713,-3.1682,-3.1703,-3.1698,-3.1786,-3.1797,-3.1827,-3.1966,-3.1971,-3.1856,-3.1861,-3.1865,-3.1867,0,0,0,0,0,0,0,-3.1479,-3.1498,-3.1683,-3.1634,-3.1635,-3.1624,-3.1635,-3.1727,-3.1755,-3.1684,-3.1681,-3.1696,-3.1786,-3.1819,-3.1829,-3.1973,-3.1856,-3.1864,-3.1869,-3.1872,-3.2224,-3.2228,0,0,0,0,0,0,-3.1471,-3.1492,-3.168,-3.1687,-3.1549,-3.1632,-3.1645,-3.1692,-3.1754,-3.1759,-3.1699,-3.1693,-3.1807,-3.1819,-3.1833,-3.1989,-3.1865,-3.1873,-3.1878,-3.222,-3.2225,-3.223,0,0,0,0,0,0,-3.1466,-3.1489,-3.1675,-3.1589,-3.1611,-3.164,-3.1694,-3.1696,-3.1729,-3.1765,-3.1769,-3.1727,-3.1804,-3.1821,-3.1929,-3.1993,-3.1876,-3.1884,-3.2215,-3.2221,-3.2227,-3.2303,0,0,0,0,0,0,-3.1459,-3.1487,-3.1537,-3.159,-3.1616,-3.177,-3.1698,-3.1701,-3.1743,-3.1737,-3.1793,-3.1798,-3.1802,-3.1917,-3.1937,-3.2002,-3.1891,-3.2209,-3.2218,-3.2225,-3.2295,-3.2312,-3.2326,0,0,0,0,0,-3.145,-3.1554,-3.154,-3.1563,-3.168,-3.1774,-3.1789,-3.1792,-3.1749,-3.1799,-3.1822,-3.1796,-3.1982,-3.1929,-3.1951,-3.2019,-3.2205,-3.2215,-3.2225,-3.2289,-3.2309,-3.2325,0,0,0,0,0,0,-3.1508,-3.1561,-3.1546,-3.1671,-3.1718,-3.1767,-3.183,-3.1813,-3.1874,-3.1865,-3.1866,-3.1879,-3.199,-3.2015,-3.1954,-3.2148,-3.2087,-3.2102,-3.2128,-3.2147,-3.2162,-3.2154,-3.1897,0,0,0,0,0,-3.1535,-3.1608,-3.165,-3.1756,-3.178,-3.1802,-3.1843,-3.1841,-3.189,-3.191,-3.1941,-3.1989,-3.2058,-3.2104,-3.217,-3.2299,-3.231,-3.2356,-3.2372,-3.2384,-3.2397,-3.2466,-3.2487,-3.2262,-3.2262,-3.2262,0,0,-3.1592,-3.163,-3.1676,-3.1768,-3.1805,-3.188,-3.1819,-3.1901,-3.1956,-3.1922,-3.2026,-3.2051,-3.2104,-3.2223,-3.2277,-3.2248,-3.2461,-3.2396,-3.2406,-3.2412,-3.2478,-3.25,-3.2519,-3.2269,-3.2268,-3.2267,0,0,-3.1734,-3.1771,-3.1863,-3.1901,-3.1957,-3.197,-3.1992,-3.2044,-3.2059,-3.2163,-3.2139,-3.2204,-3.2324,-3.2363,-3.2399,-3.2555,-3.2534,-3.2577,-3.2656,-3.2724,-3.2742,-3.2758,-3.2813,-3.2833,-3.2589,-3.259,-3.259,0,-3.1798,-3.1911,-3.1912,-3.1996,-3.2037,-3.201,-3.2103,-3.2139,-3.2214,-3.2243,-3.2209,-3.2358,-3.2392,-3.252,-3.2558,-3.2588,-3.2613,-3.2571,-3.2739,-3.2755,-3.277,-3.2823,-3.2844,-3.2594,-3.2594,-3.2593,-3.2593,0,-3.1986,-3.2064,-3.2131,-3.2205,-3.2254,-3.2341,-3.2355,-3.2404,-3.2398,-3.2415,-3.2521,-3.2561,-3.2634,-3.2664,-3.2659,-3.2791,-3.2771,-3.2738,-3.2677,-3.2796,-3.2846,-3.2866,-3.2601,-3.26,-3.2598,-3.2597,0,0,-3.2168,-3.2241,-3.2266,-3.2299,-3.2359,-3.2419,-3.2505,-3.2577,-3.2619,-3.2671,-3.2743,-3.2845,-3.2815,-3.2855,-3.2854,-3.2913,-3.3034,-3.2873,-3.2874,-3.2902,-3.3182,-3.3206,-3.323,-3.302,-3.3024,-3.3027,-3.3177,0,-3.2315,-3.2467,-3.2471,-3.261,-3.2682,-3.2657,-3.2732,-3.2777,-3.2794,-3.2857,-3.2876,-3.2948,-3.2903,-3.2927,-3.2985,-3.3008,-3.3091,-3.2997,-3.3087,-3.309,-3.3074,-3.3256,-3.3282,-3.3422,-3.3197,-3.32,-3.3203,0,-3.2507,-3.2566,-3.2713,-3.2762,-3.2792,-3.286,-3.2926,-3.2987,-3.3036,-3.3045,-3.309,-3.308,-3.3167,-3.3103,-3.3222,-3.3158,-3.3195,-3.3212,-3.3217,-3.3226,-3.3154,-3.3269,-3.3467,-3.3488,-3.3233,-3.3231,-3.3229,0,-3.2626,-3.2741,-3.2844,-3.2873,-3.2933,-3.2981,-3.3008,-3.3054,-3.3097,-3.3154,-3.3182,-3.3249,-3.3285,-3.3337,-3.3344,-3.3297,-3.3465,-3.3401,-3.3474,-3.3474,-3.351,-3.3508,-3.3716,-3.3534,-3.3534,-3.3534,-3.3533,0,-3.2789,-3.288,-3.2898,-3.2961,-3.3061,-3.3064,-3.3163,-3.3186,-3.3227,-3.3294,-3.3276,-3.3339,-3.3345,-3.341,-3.3416,-3.3514,-3.3531,-3.354,-3.354,-3.3541,-3.354,-3.3566,-3.3556,-3.3539,-3.3538,-3.3537,-3.3536,0,-3.2939,-3.2954,-3.3064,-3.3112,-3.3126,-3.3198,-3.3239,-3.3299,-3.3314,-3.3399,-3.3419,-3.3443,-3.3518,-3.3531,-3.3619,-3.3623,-3.374,-3.3731,-3.3724,-3.3723,-3.3794,-3.3787,-3.4026,-3.4058,-3.3855,-3.3857,-3.3859,0,-3.3042,-3.3111,-3.3167,-3.321,-3.324,-3.331,-3.3354,-3.3359,-3.3405,-3.3467,-3.3519,-3.3592,-3.3651,-3.3772,-3.3797,-3.3864,-3.3856,-3.3935,-3.3866,-3.3865,-3.3857,-3.3853,-3.3859,-3.3948,-3.3951,-3.3952,-3.3954,0,-3.3224,-3.3228,-3.3292,-3.336,-3.3412,-3.3465,-3.3515,-3.3551,-3.3563,-3.3615,-3.3692,-3.3738,-3.3827,-3.39,-3.3967,-3.3994,-3.3976,-3.3975,-3.3996,-3.3998,-3.399,-3.3995,-3.376,-3.397,-3.3968,-3.3967,-3.3966,-3.3966,-3.3354,-3.3414,-3.3462,-3.3534,-3.3572,-3.3619,-3.3678,-3.37,-3.3765,-3.3839,-3.3837,-3.3921,-3.3968,-3.4056,-3.4087,-3.4152,-3.4127,-3.4157,-3.4164,-3.4171,-3.4178,-3.398,-3.4165,-3.4164,-3.4164,-3.4163,-3.4163,0,-3.3535,-3.3564,-3.363,-3.3701,-3.3757,-3.3736,-3.379,-3.3838,-3.3912,-3.3958,-3.4016,-3.4104,-3.4174,-3.4205,-3.4274,-3.432,-3.4313,-3.4338,-3.4334,-3.4341,-3.4197,-3.4173,-3.4342,-3.4342,-3.4342,-3.4342,-3.4342,-3.4342,-3.3635,-3.3736,-3.3746,-3.3865,-3.3894,-3.3976,-3.4009,-3.4052,-3.4088,-3.4187,-3.4245,-3.4265,-3.4304,-3.4376,-3.4439,-3.4446,-3.4472,-3.45,-3.4504,-3.4369,-3.4351,-3.4334,-3.4311,-3.4506,-3.4506,-3.4642,-3.4643,-3.4644]},{"header":{"parameterUnit":"m.s-1","parameterCategory":1,"la1":30.2991,"la2":30.254,"lo1":-89.0895,"lo2":-89.0444,"dy":0.0017,"dx":0.0017,"nx":28,"ny":28,"refTime":"2023-08-29T09:00:00:Z","depth":0,"parameterNumber":3,"parameterNumberName":"V-component_of_WINDS"},"data":[0,0,0,0,0,0,0,0,0,0,0,0,0,0,0,0,0,0,0,0,0,0,0,0,0,0,0,0,0,0,0,0,0,0,0,0,0,0,0,0,0,0,0,0,0,0,0,0,0,0,0,0,0,0,0,0,0,0,-5.5875,-5.5876,0,-5.5898,-5.5898,-5.5899,-5.5795,-5.5792,-5.5789,-5.5786,-5.5807,-5.5811,-5.5814,0,0,0,0,0,0,0,0,0,0,0,0,0,-5.5739,-5.5742,-5.5875,-5.5876,-5.5876,-5.5898,-5.5899,-5.5899,-5.5795,-5.5792,-5.5788,-5.5785,-5.5806,-5.581,-5.5814,0,0,0,0,0,0,0,0,0,0,0,0,0,-5.5784,-5.5743,-5.5875,-5.5827,-5.5823,-5.5898,-5.5899,-5.5899,-5.5796,-5.5792,-5.5787,-5.5783,-5.5805,-5.581,-5.5815,-5.5937,0,0,-5.583,-5.5833,0,0,0,0,0,0,0,0,-5.5781,-5.5789,-5.5834,-5.5831,-5.5826,-5.5839,-5.5858,-5.5912,-5.5797,-5.5806,-5.5786,-5.5781,-5.5821,-5.5825,-5.5839,-5.5938,-5.5939,-5.5831,-5.5834,-5.5836,-5.5838,0,0,0,0,0,0,0,-5.5778,-5.5787,-5.5884,-5.5835,-5.583,-5.5803,-5.5805,-5.5868,-5.5839,-5.5805,-5.5798,-5.5802,-5.5818,-5.5834,-5.5839,-5.5939,-5.5831,-5.5835,-5.5838,-5.584,-5.6137,-5.6141,0,0,0,0,0,0,-5.5782,-5.5785,-5.5884,-5.5885,-5.5792,-5.5809,-5.5811,-5.584,-5.5838,-5.5833,-5.5806,-5.5797,-5.5828,-5.5833,-5.5839,-5.598,-5.5836,-5.5841,-5.5844,-5.6132,-5.6138,-5.6143,0,0,0,0,0,0,-5.5779,-5.5792,-5.5883,-5.5833,-5.5843,-5.5817,-5.585,-5.5842,-5.5858,-5.5838,-5.5833,-5.5828,-5.5825,-5.5832,-5.5913,-5.5979,-5.5843,-5.5848,-5.6126,-5.6134,-5.614,-5.6265,0,0,0,0,0,0,-5.5776,-5.5792,-5.5839,-5.5835,-5.5846,-5.5958,-5.5854,-5.5846,-5.5867,-5.5856,-5.5857,-5.5853,-5.5822,-5.5906,-5.5918,-5.5984,-5.5852,-5.612,-5.6129,-5.6138,-5.6254,-5.6275,-5.6293,0,0,0,0,0,-5.5772,-5.5873,-5.5842,-5.5854,-5.5904,-5.5962,-5.5968,-5.593,-5.5873,-5.592,-5.5907,-5.5853,-5.5971,-5.5915,-5.5928,-5.5996,-5.6116,-5.6127,-5.6137,-5.6246,-5.6271,-5.6293,0,0,0,0,0,0,-5.5884,-5.5871,-5.5837,-5.594,-5.5953,-5.5944,-5.6001,-5.5958,-5.5987,-5.5975,-5.5926,-5.5927,-5.6016,-5.6014,-5.5953,-5.6113,-5.6033,-5.6047,-5.6111,-5.6135,-5.6154,-5.6152,-5.5856,0,0,0,0,0,-5.5922,-5.597,-5.5956,-5.6048,-5.6056,-5.6028,-5.6052,-5.6021,-5.6032,-5.6037,-5.603,-5.6042,-5.6081,-5.6108,-5.6143,-5.6254,-5.6251,-5.6307,-5.6326,-5.6342,-5.6355,-5.6411,-5.6435,-5.6179,-5.6178,-5.6178,0,0,-5.5998,-5.5997,-5.6031,-5.6071,-5.6077,-5.6127,-5.6033,-5.6091,-5.6127,-5.6045,-5.6121,-5.6117,-5.6126,-5.6222,-5.6264,-5.6224,-5.6425,-5.6356,-5.6369,-5.6373,-5.6425,-5.6449,-5.6471,-5.6186,-5.6185,-5.6183,0,0,-5.6163,-5.6169,-5.6245,-5.6253,-5.6264,-5.6244,-5.6263,-5.626,-5.6254,-5.6329,-5.6269,-5.6311,-5.638,-5.6389,-5.6403,-5.657,-5.6521,-5.6583,-5.6683,-5.6739,-5.6759,-5.6777,-5.6835,-5.6857,-5.6595,-5.6596,-5.6596,0,-5.6257,-5.6332,-5.629,-5.6351,-5.6369,-5.6298,-5.6374,-5.6384,-5.6406,-5.642,-5.6374,-5.6458,-5.646,-5.6556,-5.6597,-5.6611,-5.6629,-5.6582,-5.676,-5.6777,-5.6793,-5.6848,-5.687,-5.6603,-5.6602,-5.6601,-5.6601,0,-5.6445,-5.6498,-5.6558,-5.6581,-5.6606,-5.6675,-5.6642,-5.6673,-5.664,-5.6625,-5.6701,-5.6701,-5.6734,-5.6754,-5.6723,-5.6846,-5.682,-5.6768,-5.6686,-5.6825,-5.6876,-5.6897,-5.6613,-5.6611,-5.6609,-5.6607,0,0,-5.6683,-5.6681,-5.6704,-5.6712,-5.6718,-5.6757,-5.6822,-5.6854,-5.688,-5.6898,-5.6949,-5.7009,-5.696,-5.6976,-5.6945,-5.6994,-5.7125,-5.6935,-5.6935,-5.6969,-5.7258,-5.7296,-5.7322,-5.7093,-5.7097,-5.71,-5.7257,0,-5.6844,-5.6954,-5.6918,-5.703,-5.7076,-5.7008,-5.7064,-5.7073,-5.7061,-5.7097,-5.7083,-5.7125,-5.7059,-5.7067,-5.7113,-5.7099,-5.7182,-5.7088,-5.7139,-5.7142,-5.7138,-5.7348,-5.7389,-5.7537,-5.7276,-5.728,-5.7282,0,-5.7046,-5.7071,-5.7188,-5.7184,-5.7202,-5.7253,-5.7279,-5.7316,-5.7324,-5.7311,-5.7328,-5.7286,-5.7348,-5.7267,-5.735,-5.7287,-5.7306,-5.7302,-5.7307,-5.7309,-5.722,-5.7355,-5.7584,-5.7606,-5.7313,-5.7311,-5.7308,0,-5.7206,-5.7269,-5.7346,-5.7355,-5.7354,-5.7391,-5.7391,-5.7395,-5.7417,-5.7439,-5.7452,-5.7482,-5.7498,-5.7521,-5.7488,-5.7432,-5.7576,-5.7492,-5.7565,-5.7567,-5.7598,-5.7596,-5.7832,-5.7613,-5.7612,-5.7612,-5.7611,0,-5.7388,-5.7462,-5.7417,-5.7465,-5.7544,-5.7501,-5.7581,-5.7574,-5.7578,-5.7622,-5.7565,-5.7608,-5.7561,-5.7599,-5.7574,-5.7646,-5.7654,-5.7644,-5.7636,-5.7649,-5.765,-5.766,-5.7648,-5.7618,-5.7616,-5.7615,-5.7614,0,-5.758,-5.7553,-5.7633,-5.7624,-5.7624,-5.7683,-5.7675,-5.7717,-5.77,-5.7757,-5.7767,-5.774,-5.7782,-5.7751,-5.7792,-5.7774,-5.7869,-5.7847,-5.7867,-5.786,-5.7935,-5.7928,-5.8184,-5.8215,-5.7977,-5.7979,-5.7981,0,-5.7698,-5.7753,-5.775,-5.7775,-5.778,-5.7822,-5.7843,-5.7802,-5.7827,-5.7839,-5.788,-5.7917,-5.7944,-5.8013,-5.7996,-5.8027,-5.8005,-5.8092,-5.8009,-5.8019,-5.8004,-5.8001,-5.8006,-5.8109,-5.8112,-5.8114,-5.8116,0,-5.791,-5.7893,-5.7926,-5.7955,-5.7982,-5.8002,-5.8018,-5.8042,-5.8,-5.803,-5.8072,-5.8093,-5.8134,-5.817,-5.8195,-5.8194,-5.8149,-5.8143,-5.8161,-5.8174,-5.8182,-5.8177,-5.7911,-5.8137,-5.8135,-5.8133,-5.8132,-5.8131,-5.8067,-5.8112,-5.8116,-5.8154,-5.8162,-5.8178,-5.8217,-5.8204,-5.8239,-5.8269,-5.8243,-5.8292,-5.8297,-5.8326,-5.8331,-5.8368,-5.8332,-5.8359,-5.8366,-5.8373,-5.8383,-5.8177,-5.8373,-5.8372,-5.8372,-5.8371,-5.8371,0,-5.8274,-5.8273,-5.8309,-5.8332,-5.8362,-5.8316,-5.8331,-5.8359,-5.8403,-5.8412,-5.8439,-5.8486,-5.8521,-5.8508,-5.8538,-5.857,-5.855,-5.858,-5.8576,-5.8577,-5.8414,-5.8394,-5.8596,-5.8596,-5.8596,-5.8596,-5.8596,-5.8596,-5.8385,-5.8458,-5.8442,-5.8518,-5.8516,-5.8564,-5.8576,-5.859,-5.8596,-5.8652,-5.868,-5.8671,-5.867,-5.87,-5.873,-5.8724,-5.8738,-5.8775,-5.8762,-5.8611,-5.8588,-5.8567,-5.8548,-5.8779,-5.8779,-5.8922,-5.8923,-5.8924]}]]